Dewpoint
48 49 50 50 52 51 51 47 38 52 56 43 38 38 38 36 35 31 29 28 22 21 20 20 19 18 21 27 26 26 27 27 29 24 23 24 24 24 23 35 25 31 35 25
47 48 49 50 51 51 51 42 46 56 53 36 37 36 37 34 34 32 30 31 26 25 23 23 22 22 36 30 28 28 30 29 29 22 23 27 25 21 20 25 33 29 35 25
47 48 49 49 51 51 52 42 43 50 52 42 34 34 36 35 36 31 28 29 27 25 26 26 26 24 36 36 33 41 41 29 25 26 20 24 26 25 21 25 36 31 28 19
46 47 49 49 50 51 51 48 41 46 43 44 38 39 35 32 32 33 31 29 27 25 27 25 25 26 37 36 38 35 34 27 22 19 20 20 24 24 21 20 24 28 27 19
45 47 48 49 50 51 49 45 42 45 40 42 40 36 38 33 32 29 31 31 27 26 28 26 25 28 36 33 37 35 35 32 33 31 28 25 25 23 22 21 21 18 21 20
45 47 48 49 49 51 48 45 49 48 42 42 38 37 39 36 33 32 29 32 32 32 32 35 39 37 37 34 37 37 36 38 37 34 28 26 29 28 23 21 21 22 23 25
46 48 48 49 49 50 49 45 50 49 41 39 35 35 38 36 33 34 33 36 35 39 43 41 39 38 37 36 36 38 38 40 42 37 32 28 23 19 16 19 17 16 16 20
47 47 48 49 49 50 50 50 53 51 44 37 35 36 39 38 36 37 41 41 43 45 44 42 39 41 39 36 32 34 36 40 39 37 29 25 22 17 19 20 20 23 22 22
46 47 47 48 49 49 50 51 53 54 49 41 33 37 39 38 39 43 44 45 48 47 48 46 37 36 31 30 31 29 29 40 41 36 35 30 29 24 24 23 27 24 24 27
47 47 47 47 48 48 47 49 52 52 49 43 39 38 39 40 44 46 44 43 44 45 50 41 43 39 28 32 35 36 39 41 37 36 37 35 27 26 28 27 34 33 31 31
46 47 47 47 47 47 47 47 51 50 52 46 44 41 40 39 45 44 47 43 44 49 45 46 46 44 41 35 31 37 37 39 36 41 35 32 25 26 29 38 37 35 35 37
46 47 47 47 48 49 49 47 52 54 51 52 53 51 51 50 51 47 47 44 44 47 45 48 50 41 40 43 37 30 35 36 39 37 37 37 30 33 36 37 37 38 39 37
46 47 47 48 48 48 49 49 53 57 52 49 47 49 51 51 52 55 47 51 45 47 51 50 50 40 47 39 43 41 32 34 39 36 27 28 32 37 40 39 40 39 40 41
45 47 48 48 48 49 49 50 54 56 54 47 48 50 48 50 51 51 53 52 54 53 53 53 43 43 42 47 41 42 35 34 31 33 29 34 38 42 41 41 42 41 39 37
45 47 48 49 49 49 50 53 56 57 54 45 48 48 48 48 49 48 50 52 51 51 50 42 48 46 47 47 46 45 34 33 40 41 40 40 39 38 39 38 37 36 34 34
48 48 48 48 48 49 52 49 55 57 56 49 45 49 48 47 47 47 49 49 50 48 48 48 45 43 48 42 43 37 38 38 40 39 40 40 38 37 37 37 37 37 36 36
47 47 48 48 49 52 51 48 50 49 55 50 42 44 47 48 48 48 48 51 49 48 47 46 46 44 44 41 43 38 37 37 39 38 39 37 38 36 37 36 35 36 34 33
47 48 48 49 49 49 51 51 47 49 49 51 41 39 47 48 49 47 48 50 49 46 43 45 44 44 47 43 37 36 36 36 36 37 38 38 36 36 35 34 34 33 34 34
48 49 49 52 52 51 49 45 47 54 51 46 38 38 38 45 44 46 47 47 41 45 43 43 44 40 39 38 36 36 37 37 36 36 36 35 34 34 33 33 33 33 32 31
48 51 49 43 49 45 46 49 49 49 47 44 41 43 40 43 44 42 42 44 41 39 41 42 40 36 35 36 36 37 38 37 37 35 34 34 33 33 33 32 32 30 27 27
53 49 44 48 46 48 47 42 43 44 40 40 41 42 41 43 40 38 43 39 40 37 37 40 36 34 34 35 35 37 37 37 36 36 35 34 34 34 33 29 29 31 31 31
50 49 49 49 46 45 38 36 40 39 36 39 39 40 40 42 43 41 41 37 38 34 38 36 34 34 34 35 35 36 37 36 35 34 33 33 31 29 28 29 30 32 32 31
50 47 41 44 39 36 35 33 35 34 36 37 39 37 41 41 41 39 38 34 36 39 35 32 34 34 35 35 34 35 35 35 33 30 28 28 30 31 32 32 33 32 31 29
44 38 34 36 34 33 34 35 35 34 35 38 39 37 39 40 36 37 34 35 35 32 30 32 34 35 35 34 33 33 30 31 29 28 29 31 31 31 31 30 29 27 25 25
37 37 31 31 32 33 33 34 35 35 39 41 40 40 38 36 34 37 34 32 31 32 33 34 35 36 36 34 32 29 31 31 30 30 32 32 31 30 27 25 25 26 25 24
35 34 32 33 33 32 33 33 33 37 39 42 43 37 34 33 35 34 33 32 31 33 34 34 36 36 34 31 30 30 29 31 31 32 32 31 30 28 25 23 21 25 24 21
34 32 33 33 33 31 32 33 34 37 38 35 38 33 32 35 33 31 34 32 33 34 34 35 36 34 32 31 33 32 32 32 32 32 31 29 26 25 22 20 15 16 19 21
Lifted_Index
9 8 8 8 6 5 3 2 2 1 2 4 6 5 4 2 1 1 1 1 1 0 -0 -0 0 -0 -0 -0 -0 -0 -0 -1 -0 -0 -0 0 0 0 0 0 0 1 1 0
9 9 8 8 7 5 4 3 2 1 2 4 5 5 4 2 1 1 1 1 1 0 -0 -1 -0 -0 -0 -0 -0 -0 -0 -0 0 0 -0 -0 -0 0 0 0 1 1 1 1
10 10 9 8 7 5 4 3 2 1 2 4 5 5 3 2 1 1 1 1 1 1 -0 -1 -0 -0 -0 0 0 0 0 0 1 1 0 -0 -1 -0 0 1 1 1 1 1
10 10 10 9 7 6 4 3 3 2 2 3 4 4 3 2 1 1 1 0 1 0 0 -0 0 0 -0 0 0 0 0 1 1 1 0 -0 -0 0 1 1 1 1 1 1
10 10 10 9 8 6 5 4 3 2 2 3 4 3 2 1 1 1 0 0 0 0 -0 -0 -0 -0 -0 -0 0 0 0 0 1 1 1 1 1 1 1 1 2 2 2 2
10 10 9 9 8 6 5 4 2 2 2 3 3 3 2 0 -0 -0 -0 -1 -1 -1 -1 -2 -1 -1 -1 -0 -0 -0 -0 -0 0 0 1 1 2 2 2 2 2 2 2 2
9 9 9 8 7 7 6 4 2 1 1 2 3 2 1 -0 -1 -1 -1 -1 -1 -2 -2 -2 -1 -1 -0 -0 -0 -0 -1 -0 0 1 1 2 2 3 3 3 3 3 3 3
7 8 8 8 7 7 6 4 1 0 1 2 2 1 -0 -1 -1 -1 -1 -2 -2 -2 -2 -2 -1 -0 0 0 1 0 -0 -0 1 1 2 2 2 3 3 3 3 4 4 4
6 7 8 8 7 7 6 4 2 0 -0 1 1 0 -1 -2 -2 -1 -1 -1 -2 -2 -2 -2 -1 -0 0 1 1 1 1 1 1 2 2 2 2 3 3 3 4 4 4 4
4 6 7 8 8 7 6 4 2 1 -0 -0 -0 -1 -2 -2 -2 -1 -1 -1 -2 -2 -2 -1 -1 -0 0 0 1 1 1 1 1 2 1 2 2 3 3 3 4 4 5 5
4 5 6 7 8 7 6 4 3 1 -0 -1 -2 -2 -2 -2 -2 -2 -1 -2 -2 -2 -2 -2 -1 -1 -0 0 1 1 1 1 1 1 1 2 3 4 4 4 4 4 5 5
5 5 6 7 7 7 6 4 2 1 -1 -2 -2 -2 -2 -2 -3 -3 -2 -2 -2 -2 -2 -2 -2 -1 -0 -0 0 1 1 1 1 1 2 3 4 5 4 4 4 5 5 5
6 5 6 6 6 6 4 3 1 0 -1 -2 -2 -2 -2 -2 -3 -3 -3 -3 -3 -2 -3 -2 -1 -1 -0 -0 0 1 1 2 2 2 3 4 4 5 4 4 5 5 5 5
6 6 6 5 5 4 3 2 1 -1 -2 -2 -2 -1 -1 -2 -2 -3 -3 -4 -3 -3 -3 -2 -0 -0 -0 -0 0 1 2 2 2 3 3 4 4 4 4 5 5 5 5 5
6 6 5 4 4 3 3 2 1 -1 -1 -2 -1 -1 -1 -1 -2 -3 -3 -3 -3 -3 -2 -1 0 0 0 0 1 1 2 2 3 3 3 3 4 4 5 5 5 6 6 6
5 4 4 3 3 3 3 2 1 -1 -1 -1 -1 -0 -1 -2 -2 -2 -2 -3 -3 -2 -1 -0 0 0 0 1 1 2 2 3 3 3 4 4 5 5 5 6 6 6 6 6
3 3 3 3 3 2 1 1 0 -0 -1 -1 -0 -0 -1 -1 -2 -2 -2 -2 -2 -1 -1 0 0 0 0 1 2 2 3 3 4 4 5 5 5 5 6 6 6 6 6 7
2 2 2 2 2 1 1 1 1 1 0 -0 -0 -0 -1 -1 -1 -1 -1 -1 -1 -0 0 0 0 0 1 1 2 2 3 3 4 5 5 5 5 5 6 6 7 7 7 8
1 1 1 1 1 1 1 1 1 1 1 1 0 -0 -0 -0 -1 -1 -0 -0 -0 0 0 0 0 1 1 1 2 2 3 4 4 5 5 5 5 6 6 7 8 8 9 10
0 1 1 1 2 2 2 2 2 2 2 3 2 1 -0 -0 -0 -0 -0 -0 0 0 0 1 1 1 1 2 2 3 4 5 5 5 5 6 6 7 7 8 9 10 10 11
0 1 1 2 2 2 2 2 2 2 3 3 3 1 1 0 -0 -0 -0 0 0 1 1 2 2 3 2 3 4 5 6 6 7 7 7 7 8 8 9 10 11 11 12 13
1 1 1 1 1 1 1 2 2 2 3 3 3 2 2 1 1 0 0 1 2 2 3 3 4 4 4 4 5 6 7 8 8 8 9 9 9 10 10 11 12 13 13 14
1 1 1 1 1 1 1 2 2 2 3 3 3 3 2 2 2 2 2 2 3 3 4 4 4 4 4 6 7 7 8 9 9 9 10 10 11 12 12 13 13 13 14 14
1 1 1 1 1 1 2 2 2 2 2 3 3 3 2 2 2 2 2 3 3 3 3 3 3 4 5 7 8 8 9 9 10 10 11 11 12 12 13 14 14 13 13 13
2 2 2 1 1 1 2 2 2 2 3 3 2 2 2 2 2 2 2 2 2 2 2 3 4 5 6 7 8 8 9 10 10 11 11 11 12 12 13 13 13 13 13 13
2 2 2 2 2 2 2 3 3 3 3 3 2 2 1 2 2 2 2 2 2 2 3 4 5 6 7 7 8 9 10 10 11 11 11 11 12 12 12 12 12 12 12 12
2 2 3 3 2 2 2 3 3 4 3 3 2 2 1 2 2 2 2 2 2 3 4 5 5 6 7 8 8 9 10 11 11 11 10 11 11 12 12 12 12 12 12 12